Darstellungsparameter: Aktuell verwendete Einstellungen:
Skalierung der Graphiken ... ?
xyx+y,   Skalierungsfaktor:      Skalierung: Modus: x, Faktor: 1
Darstellungszeitraum ... ?
Vom - - bis: - -   Zeitraum: 25.07.2019 - 25.07.2019
Min/Max/Avg-Anzeige ... ?
Zeige MMA aktuell
Zeige MMA Monat
Zeige MMA alles
Zeige --A aktuell
Zeige --A Monat
Zeige --A alles
Keine MMA-Anzeige
MMA:
Keine MMA-Graphiken
MMA-Basis: 25.07.2019 - 25.07.2019
Quicknavigation für Darstellung... ?
Tage:      1T, 2T, 3T, 5T -1T -2T -3T -5T +1T +2T +3T +5T
Wochen: 1W, 2W, 3W -1W -2W -3W +1W +2W +3W
Monate: 1M, 3M, 6M -1M -3M -6M +1M +3M +6M
Jahre:    1J, 3J, 5J, 10J -1J -3J -5J -10J +1J +3J +5J +10J
Nutze für die Darstellung ... ?
Originaldaten oder Mittelwerte auf ...
Stundenbasis Tagesbasis Wochenbasis
Monatsbasis Jahresbasis      Datenbasis: Original-Daten
Darstellen als:
Statistik (Auto) Statistik J:M      Darstellung:
Zur Graphik,    zurück zur Übersicht aller Sensoren.
 
Tabellarische Datenbersicht: ?
 
Sensor: Nr:Datum:Temp:Feuchte:Taupunkt:
Aussen-T/F 1 25-07-2019 00:00:00 24.3 C 62 % 16.55 C
2 25-07-2019 00:05:00 24 C 61 % 16.02 C
3 25-07-2019 00:10:00 23.9 C 63 % 16.43 C
4 25-07-2019 00:15:00 23.9 C 63 % 16.43 C
5 25-07-2019 00:20:00 23.8 C 63 % 16.33 C
6 25-07-2019 00:25:00 23.7 C 62 % 15.99 C
7 25-07-2019 00:30:00 23.6 C 62 % 15.89 C
8 25-07-2019 00:35:00 23.6 C 64 % 16.39 C
9 25-07-2019 00:40:00 23.4 C 64 % 16.2 C
10 25-07-2019 00:45:00 23.3 C 63 % 15.86 C
11 25-07-2019 00:50:00 23.4 C 64 % 16.2 C
12 25-07-2019 00:55:00 23.3 C 66 % 16.59 C
13 25-07-2019 01:00:00 23.2 C 65 % 16.26 C
14 25-07-2019 01:05:00 23.1 C 65 % 16.16 C
15 25-07-2019 01:10:00 22.9 C 66 % 16.21 C
16 25-07-2019 01:15:00 22.7 C 66 % 16.02 C
17 25-07-2019 01:20:00 22.6 C 67 % 16.16 C
18 25-07-2019 01:25:00 22.4 C 66 % 15.74 C
19 25-07-2019 01:30:00 22.3 C 67 % 15.88 C
20 25-07-2019 01:35:00 22.3 C 65 % 15.4 C
21 25-07-2019 01:40:00 22.3 C 68 % 16.11 C
22 25-07-2019 01:45:00 22.3 C 68 % 16.11 C
23 25-07-2019 01:50:00 22.2 C 68 % 16.01 C
24 25-07-2019 01:55:00 22.1 C 68 % 15.92 C
25 25-07-2019 02:00:00 22 C 69 % 16.05 C
Sensor: Nr:Datum:Temp:Feuchte:Taupunkt:
Aussen-T/F 26 25-07-2019 02:05:00 21.9 C 70 % 16.18 C
27 25-07-2019 02:10:00 21.8 C 70 % 16.09 C
28 25-07-2019 02:15:00 21.7 C 70 % 15.99 C
29 25-07-2019 02:20:00 21.7 C 70 % 15.99 C
30 25-07-2019 02:25:00 21.7 C 71 % 16.21 C
31 25-07-2019 02:30:00 21.6 C 70 % 15.89 C
32 25-07-2019 02:35:00 21.5 C 70 % 15.8 C
33 25-07-2019 02:40:00 21.4 C 71 % 15.93 C
34 25-07-2019 02:45:00 21.4 C 71 % 15.93 C
35 25-07-2019 02:50:00 21.3 C 72 % 16.05 C
36 25-07-2019 02:55:00 21.2 C 72 % 15.95 C
37 25-07-2019 03:00:00 21.2 C 72 % 15.95 C
38 25-07-2019 03:05:00 21.2 C 73 % 16.17 C
39 25-07-2019 03:10:00 21.2 C 73 % 16.17 C
40 25-07-2019 03:15:00 21.1 C 73 % 16.07 C
41 25-07-2019 03:20:00 20.9 C 74 % 16.09 C
42 25-07-2019 03:25:00 20.8 C 74 % 16 C
43 25-07-2019 03:30:00 20.8 C 74 % 16 C
44 25-07-2019 03:35:00 20.8 C 74 % 16 C
45 25-07-2019 03:40:00 20.8 C 74 % 16 C
46 25-07-2019 03:45:00 20.7 C 75 % 16.11 C
47 25-07-2019 03:50:00 20.6 C 75 % 16.01 C
48 25-07-2019 03:55:00 20.6 C 76 % 16.22 C
49 25-07-2019 04:00:00 20.4 C 76 % 16.03 C
50 25-07-2019 04:05:00 20.3 C 76 % 15.93 C
Sensor: Nr:Datum:Temp:Feuchte:Taupunkt:
Aussen-T/F 51 25-07-2019 04:10:00 20.2 C 77 % 16.04 C
52 25-07-2019 04:15:00 20.1 C 77 % 15.94 C
53 25-07-2019 04:20:00 19.9 C 78 % 15.95 C
54 25-07-2019 04:25:00 20.1 C 78 % 16.14 C
55 25-07-2019 04:30:00 20.1 C 78 % 16.14 C
56 25-07-2019 04:35:00 20.1 C 78 % 16.14 C
57 25-07-2019 04:40:00 20.1 C 78 % 16.14 C
58 25-07-2019 04:45:00 19.9 C 79 % 16.15 C
59 25-07-2019 04:50:00 19.9 C 79 % 16.15 C
60 25-07-2019 04:55:00 19.8 C 79 % 16.05 C
61 25-07-2019 05:00:00 19.7 C 79 % 15.96 C
62 25-07-2019 05:05:00 19.6 C 79 % 15.86 C
63 25-07-2019 05:10:00 19.6 C 80 % 16.06 C
64 25-07-2019 05:15:00 19.4 C 80 % 15.86 C
65 25-07-2019 05:20:00 19.4 C 80 % 15.86 C
66 25-07-2019 05:25:00 19.3 C 80 % 15.76 C
67 25-07-2019 05:30:00 19.3 C 80 % 15.76 C
68 25-07-2019 05:35:00 19.3 C 80 % 15.76 C
69 25-07-2019 05:40:00 19.2 C 80 % 15.67 C
70 25-07-2019 05:45:00 19.2 C 80 % 15.67 C
71 25-07-2019 05:50:00 19.2 C 81 % 15.86 C
72 25-07-2019 05:55:00 19.1 C 81 % 15.76 C
73 25-07-2019 06:00:00 19.1 C 82 % 15.96 C
74 25-07-2019 06:05:00 19.1 C 82 % 15.96 C
75 25-07-2019 06:10:00 19.1 C 82 % 15.96 C
Sensor: Nr:Datum:Temp:Feuchte:Taupunkt:
Aussen-T/F 76 25-07-2019 06:15:00 19.2 C 82 % 16.05 C
77 25-07-2019 06:20:00 19.2 C 82 % 16.05 C
78 25-07-2019 06:25:00 19.1 C 82 % 15.96 C
79 25-07-2019 06:30:00 19.2 C 82 % 16.05 C
80 25-07-2019 06:35:00 19.2 C 82 % 16.05 C
81 25-07-2019 06:40:00 19.2 C 82 % 16.05 C
82 25-07-2019 06:45:00 19.3 C 83 % 16.34 C
83 25-07-2019 06:50:00 19.3 C 83 % 16.34 C
84 25-07-2019 06:55:00 19.3 C 83 % 16.34 C
85 25-07-2019 07:00:00 19.3 C 83 % 16.34 C
86 25-07-2019 07:05:00 19.3 C 83 % 16.34 C
87 25-07-2019 07:10:00 19.4 C 84 % 16.63 C
88 25-07-2019 07:15:00 19.4 C 84 % 16.63 C
89 25-07-2019 07:20:00 19.4 C 84 % 16.63 C
90 25-07-2019 07:25:00 19.5 C 84 % 16.72 C
91 25-07-2019 07:30:00 19.6 C 84 % 16.82 C
92 25-07-2019 07:35:00 19.6 C 84 % 16.82 C
93 25-07-2019 07:40:00 19.7 C 84 % 16.92 C
94 25-07-2019 07:45:00 19.8 C 84 % 17.02 C
95 25-07-2019 07:50:00 19.8 C 84 % 17.02 C
96 25-07-2019 07:55:00 19.9 C 84 % 17.12 C
97 25-07-2019 08:00:00 20 C 83 % 17.02 C
98 25-07-2019 08:05:00 20.1 C 84 % 17.31 C
99 25-07-2019 08:10:00 20.2 C 83 % 17.22 C
100 25-07-2019 08:15:00 20.3 C 82 % 17.13 C
Sensor: Nr:Datum:Temp:Feuchte:Taupunkt:
Aussen-T/F 101 25-07-2019 08:20:00 20.5 C 83 % 17.51 C
102 25-07-2019 08:25:00 20.7 C 83 % 17.71 C
103 25-07-2019 08:30:00 20.8 C 83 % 17.81 C
104 25-07-2019 08:35:00 20.9 C 82 % 17.71 C
105 25-07-2019 08:40:00 21.1 C 83 % 18.1 C
106 25-07-2019 08:45:00 21.2 C 83 % 18.2 C
107 25-07-2019 08:50:00 21.4 C 82 % 18.2 C
108 25-07-2019 08:55:00 21.6 C 82 % 18.39 C
109 25-07-2019 09:00:00 21.7 C 81 % 18.3 C
110 25-07-2019 09:05:00 21.8 C 79 % 18 C
111 25-07-2019 09:10:00 22.1 C 81 % 18.69 C
112 25-07-2019 09:15:00 22.2 C 81 % 18.78 C
113 25-07-2019 09:20:00 22.3 C 78 % 18.28 C
114 25-07-2019 09:25:00 22.6 C 78 % 18.57 C
115 25-07-2019 09:30:00 22.8 C 77 % 18.56 C
116 25-07-2019 09:35:00 23.1 C 77 % 18.85 C
117 25-07-2019 09:40:00 23.3 C 75 % 18.62 C
118 25-07-2019 09:45:00 23.5 C 74 % 18.6 C
119 25-07-2019 09:50:00 23.7 C 72 % 18.35 C
120 25-07-2019 09:55:00 24 C 70 % 18.19 C
121 25-07-2019 10:00:00 24.3 C 70 % 18.48 C
122 25-07-2019 10:05:00 24.6 C 71 % 18.99 C
123 25-07-2019 10:10:00 24.9 C 70 % 19.05 C
124 25-07-2019 10:15:00 25.1 C 69 % 19.01 C
125 25-07-2019 10:20:00 25.3 C 68 % 18.97 C
Sensor: Nr:Datum:Temp:Feuchte:Taupunkt:
Aussen-T/F 126 25-07-2019 10:25:00 25.6 C 69 % 19.49 C
127 25-07-2019 10:30:00 25.9 C 67 % 19.3 C
128 25-07-2019 10:35:00 26.2 C 65 % 19.1 C
129 25-07-2019 10:40:00 26.6 C 63 % 18.97 C
130 25-07-2019 10:45:00 26.9 C 62 % 19 C
131 25-07-2019 10:50:00 27.2 C 63 % 19.54 C
132 25-07-2019 10:55:00 27.5 C 63 % 19.82 C
133 25-07-2019 11:00:00 27.8 C 61 % 19.59 C
134 25-07-2019 11:05:00 28.2 C 60 % 19.69 C
135 25-07-2019 11:10:00 28.6 C 56 % 18.96 C
136 25-07-2019 11:15:00 29.1 C 58 % 19.99 C
137 25-07-2019 11:20:00 29.4 C 54 % 19.12 C
138 25-07-2019 11:25:00 29.8 C 55 % 19.78 C
139 25-07-2019 11:30:00 30.1 C 54 % 19.76 C
140 25-07-2019 11:35:00 30.5 C 53 % 19.83 C
141 25-07-2019 11:40:00 30.8 C 50 % 19.17 C
142 25-07-2019 11:45:00 31.2 C 48 % 18.88 C
143 25-07-2019 11:50:00 31.6 C 47 % 18.91 C
144 25-07-2019 11:55:00 32.1 C 44 % 18.3 C
145 25-07-2019 12:00:00 32.6 C 41 % 17.63 C
146 25-07-2019 12:05:00 33 C 40 % 17.59 C
147 25-07-2019 12:10:00 33.4 C 38 % 17.14 C
148 25-07-2019 12:15:00 33.8 C 38 % 17.49 C
149 25-07-2019 12:20:00 34.3 C 35 % 16.63 C
150 25-07-2019 12:25:00 34.7 C 35 % 16.98 C
Sensor: Nr:Datum:Temp:Feuchte:Taupunkt:
Aussen-T/F 151 25-07-2019 12:30:00 34.9 C 35 % 17.16 C
152 25-07-2019 12:35:00 35.2 C 33 % 16.49 C
153 25-07-2019 12:40:00 35.3 C 33 % 16.58 C
154 25-07-2019 12:45:00 35.5 C 33 % 16.75 C
155 25-07-2019 12:50:00 35.7 C 33 % 16.92 C
156 25-07-2019 12:55:00 35.9 C 31 % 16.11 C
157 25-07-2019 13:00:00 36 C 32 % 16.7 C
158 25-07-2019 13:05:00 36.1 C 32 % 16.79 C
159 25-07-2019 13:10:00 36.2 C 32 % 16.87 C
160 25-07-2019 13:15:00 36.3 C 32 % 16.96 C
161 25-07-2019 13:20:00 36.3 C 30 % 15.94 C
162 25-07-2019 13:25:00 36.4 C 31 % 16.54 C
163 25-07-2019 13:30:00 36.4 C 31 % 16.54 C
164 25-07-2019 13:35:00 36.6 C 31 % 16.72 C
165 25-07-2019 13:40:00 36.7 C 31 % 16.8 C
166 25-07-2019 13:45:00 36.8 C 30 % 16.37 C
167 25-07-2019 13:50:00 36.9 C 31 % 16.97 C
168 25-07-2019 13:55:00 36.9 C 29 % 15.93 C
169 25-07-2019 14:00:00 36.9 C 30 % 16.46 C
170 25-07-2019 14:05:00 37.1 C 30 % 16.63 C
171 25-07-2019 14:10:00 37.2 C 29 % 16.18 C
172 25-07-2019 14:15:00 37.3 C 30 % 16.8 C
173 25-07-2019 14:20:00 37.4 C 29 % 16.35 C
174 25-07-2019 14:25:00 37.4 C 27 % 15.24 C
175 25-07-2019 14:30:00 37.4 C 30 % 16.89 C
Sensor: Nr:Datum:Temp:Feuchte:Taupunkt:
Aussen-T/F 176 25-07-2019 14:35:00 37.6 C 28 % 15.97 C
177 25-07-2019 14:40:00 37.6 C 29 % 16.52 C
178 25-07-2019 14:45:00 37.7 C 27 % 15.49 C
179 25-07-2019 14:50:00 37.7 C 29 % 16.61 C
180 25-07-2019 14:55:00 37.8 C 28 % 16.14 C
181 25-07-2019 15:00:00 37.9 C 28 % 16.23 C
182 25-07-2019 15:05:00 38.2 C 28 % 16.48 C
183 25-07-2019 15:10:00 38.3 C 28 % 16.57 C
184 25-07-2019 15:15:00 38.5 C 27 % 16.16 C
185 25-07-2019 15:20:00 38.7 C 26 % 15.74 C
186 25-07-2019 15:25:00 38.8 C 26 % 15.83 C
187 25-07-2019 15:30:00 38.9 C 26 % 15.91 C
188 25-07-2019 15:35:00 38.7 C 26 % 15.74 C
189 25-07-2019 15:40:00 38.8 C 26 % 15.83 C
190 25-07-2019 15:45:00 39.2 C 25 % 15.55 C
191 25-07-2019 15:50:00 39.6 C 26 % 16.5 C
192 25-07-2019 15:55:00 39.9 C 24 % 15.5 C
193 25-07-2019 16:00:00 40.1 C 23 % 15 C
194 25-07-2019 16:05:00 40.2 C 24 % 15.75 C
195 25-07-2019 16:10:00 40.2 C 25 % 16.39 C
196 25-07-2019 16:15:00 40.3 C 23 % 15.17 C
197 25-07-2019 16:20:00 40.4 C 24 % 15.91 C
198 25-07-2019 16:25:00 40.4 C 25 % 16.55 C
199 25-07-2019 16:30:00 40.4 C 23 % 15.25 C
200 25-07-2019 16:35:00 40.3 C 23 % 15.17 C
Sensor: Nr:Datum:Temp:Feuchte:Taupunkt:
Aussen-T/F 201 25-07-2019 16:40:00 40 C 23 % 14.92 C
202 25-07-2019 16:45:00 39.9 C 23 % 14.83 C
203 25-07-2019 16:50:00 39.9 C 25 % 16.13 C
204 25-07-2019 16:55:00 39.7 C 23 % 14.67 C
205 25-07-2019 17:00:00 39.8 C 24 % 15.41 C
206 25-07-2019 17:05:00 39.9 C 24 % 15.5 C
207 25-07-2019 17:10:00 40.3 C 23 % 15.17 C
208 25-07-2019 17:15:00 40.3 C 22 % 14.48 C
209 25-07-2019 17:20:00 40.1 C 22 % 14.31 C
210 25-07-2019 17:25:00 39.9 C 22 % 14.15 C
211 25-07-2019 17:30:00 39.6 C 22 % 13.9 C
212 25-07-2019 17:35:00 39.5 C 22 % 13.82 C
213 25-07-2019 17:40:00 39.5 C 22 % 13.82 C
214 25-07-2019 17:45:00 39.5 C 22 % 13.82 C
215 25-07-2019 17:50:00 39.6 C 23 % 14.59 C
216 25-07-2019 17:55:00 39.7 C 23 % 14.67 C
217 25-07-2019 18:00:00 39.6 C 23 % 14.59 C
218 25-07-2019 18:05:00 39.4 C 23 % 14.42 C
219 25-07-2019 18:10:00 39.4 C 22 % 13.74 C
220 25-07-2019 18:15:00 39.4 C 23 % 14.42 C
221 25-07-2019 18:20:00 39.3 C 22 % 13.65 C
222 25-07-2019 18:25:00 39.3 C 23 % 14.34 C
223 25-07-2019 18:30:00 39.2 C 23 % 14.26 C
224 25-07-2019 18:35:00 39.1 C 23 % 14.17 C
225 25-07-2019 18:40:00 38.8 C 23 % 13.92 C
Sensor: Nr:Datum:Temp:Feuchte:Taupunkt:
Aussen-T/F 226 25-07-2019 18:45:00 38.6 C 24 % 14.42 C
227 25-07-2019 18:50:00 38.6 C 24 % 14.42 C
228 25-07-2019 18:55:00 38.4 C 29 % 17.2 C
229 25-07-2019 19:00:00 38.3 C 25 % 14.8 C
230 25-07-2019 19:05:00 38.2 C 31 % 18.09 C
231 25-07-2019 19:10:00 38 C 28 % 16.31 C
232 25-07-2019 19:15:00 37.8 C 33 % 18.74 C
233 25-07-2019 19:20:00 37.4 C 32 % 17.91 C
234 25-07-2019 19:25:00 37 C 33 % 18.05 C
235 25-07-2019 19:30:00 36.6 C 33 % 17.7 C
236 25-07-2019 19:35:00 36.2 C 35 % 18.29 C
237 25-07-2019 19:40:00 35.7 C 36 % 18.3 C
238 25-07-2019 19:45:00 35.3 C 39 % 19.23 C
239 25-07-2019 19:50:00 34.9 C 38 % 18.46 C
240 25-07-2019 19:55:00 34.6 C 38 % 18.2 C
241 25-07-2019 20:00:00 34.3 C 41 % 19.15 C
242 25-07-2019 20:05:00 33.9 C 41 % 18.79 C
243 25-07-2019 20:10:00 33.7 C 40 % 18.22 C
244 25-07-2019 20:15:00 33.4 C 40 % 17.95 C
245 25-07-2019 20:20:00 33.2 C 42 % 18.55 C
246 25-07-2019 20:25:00 32.9 C 41 % 17.9 C
247 25-07-2019 20:30:00 32.7 C 42 % 18.1 C
248 25-07-2019 20:35:00 32.4 C 42 % 17.83 C
249 25-07-2019 20:40:00 32.2 C 43 % 18.03 C
250 25-07-2019 20:45:00 31.9 C 43 % 17.76 C
Sensor: Nr:Datum:Temp:Feuchte:Taupunkt:
Aussen-T/F 251 25-07-2019 20:50:00 31.7 C 44 % 17.94 C
252 25-07-2019 20:55:00 31.5 C 43 % 17.4 C
253 25-07-2019 21:00:00 31.3 C 44 % 17.58 C
254 25-07-2019 21:05:00 31.1 C 44 % 17.4 C
255 25-07-2019 21:10:00 30.9 C 45 % 17.58 C
256 25-07-2019 21:15:00 30.7 C 44 % 17.04 C
257 25-07-2019 21:20:00 30.5 C 44 % 16.86 C
258 25-07-2019 21:25:00 30.3 C 45 % 17.04 C
259 25-07-2019 21:30:00 30.2 C 45 % 16.95 C
260 25-07-2019 21:35:00 30.1 C 45 % 16.86 C
261 25-07-2019 21:40:00 29.9 C 45 % 16.68 C
262 25-07-2019 21:45:00 29.8 C 45 % 16.59 C
263 25-07-2019 21:50:00 29.7 C 45 % 16.5 C
264 25-07-2019 21:55:00 29.6 C 45 % 16.41 C
265 25-07-2019 22:00:00 29.4 C 45 % 16.23 C
266 25-07-2019 22:05:00 29.3 C 46 % 16.48 C
267 25-07-2019 22:10:00 29.2 C 46 % 16.39 C
268 25-07-2019 22:15:00 29.1 C 47 % 16.64 C
269 25-07-2019 22:20:00 28.9 C 46 % 16.12 C
270 25-07-2019 22:25:00 28.8 C 48 % 16.69 C
271 25-07-2019 22:30:00 28.7 C 48 % 16.6 C
272 25-07-2019 22:35:00 28.5 C 48 % 16.42 C
273 25-07-2019 22:40:00 28.4 C 48 % 16.33 C
274 25-07-2019 22:45:00 28.3 C 48 % 16.24 C
275 25-07-2019 22:50:00 28.3 C 49 % 16.56 C
Sensor: Nr:Datum:Temp:Feuchte:Taupunkt:
Aussen-T/F 276 25-07-2019 22:55:00 28.2 C 48 % 16.15 C
277 25-07-2019 23:00:00 28.1 C 49 % 16.38 C
278 25-07-2019 23:05:00 28 C 48 % 15.97 C
279 25-07-2019 23:10:00 27.9 C 49 % 16.2 C
280 25-07-2019 23:15:00 27.8 C 48 % 15.78 C
281 25-07-2019 23:20:00 27.8 C 49 % 16.11 C
282 25-07-2019 23:25:00 27.7 C 50 % 16.33 C
283 25-07-2019 23:30:00 27.6 C 49 % 15.92 C
284 25-07-2019 23:35:00 27.4 C 50 % 16.06 C
285 25-07-2019 23:40:00 27.3 C 50 % 15.97 C
286 25-07-2019 23:45:00 27.2 C 50 % 15.87 C
287 25-07-2019 23:50:00 27.1 C 51 % 16.09 C
288 25-07-2019 23:55:00 26.9 C 53 % 16.51 C

Legende:
   Min
   Max


Maximal/Minimal-Werte vom 25.07.2019 - 25.07.2019

Sensor Min Max Avg
Temp
(Aussen-T/F)
19.1 °C
25-07-2019  05:55:00
40.4 °C
25-07-2019  16:20:00
28.69 °C
Feuchte
(Aussen-T/F)
22 %
25-07-2019  17:15:00
84 %
25-07-2019  07:10:00
53.57 %
Taupunkt
(Aussen-T/F)
13.65 C
25-07-2019  18:20:00
19.99 C
25-07-2019  11:15:00
16.58 C

Die Daten stammen von einer Davis Vantage Pro 2 Wetter-Station und werden unter Linux mit der Software wview2wettercgi und aufbereitet. Alle Angaben erfolgen ohne Gewähr für ihre Vollständigkeit oder Richtigkeit.
Kontakt: Rainer Krienke krienke@uni-koblenz.de . Meine Webseiten an der Uni Koblenz oder privat.
Version: $Revision: 0.78 $